UK-DMC 2

Last updated on Tue Dec 03 2024 00:02:32 GMT+0000 (Coordinated Universal Time)

1 35683U 09041C 24337.51408014 .00002623 00000+0 40331-3 0 9997 2 35683 97.8039 118.5909 0001042 88.4723 271.6605 14.74318343823755
UTC large
Height (km)
Speed (km/s)
/
Latitude / Longitude
Inclination (degrees)
Orbital Period (minutes)
Azimuth
Elevation
Range (km)
Doppler Factor

Next 0 passes for location: London (51.5072 / 0.1276)

Sorry there are no passes over London.